KOREASAT 6

Last updated on Tue Sep 16 2025 00:02:47 GMT+0000 (Coordinated Universal Time)

1 37265U 10070B 25258.33076918 -.00000127 00000+0 00000+0 0 9999 2 37265 0.0145 107.6605 0002110 92.6549 73.1792 1.00271787 54011
UTC large
Height (km)
Speed (km/s)
/
Latitude / Longitude
Inclination (degrees)
Orbital Period (minutes)
Azimuth
Elevation
Range (km)
Doppler Factor

Next 0 passes for location: London (51.5072 / 0.1276)

Sorry there are no passes over London.